Location: Bregenz
(47.5012°N, 9.7411°E)
Time: 19:13:31
(UTC+01:00)

ISS - Pass Details

Date: 08 December 2021
Orbit: 413 x 422 km, 51.6° (Epoch: 27 January)

Event Time Altitude Azimuth Distance (km) Brightness Sun altitude
Rises 17:51:04 0° 289° (WNW) 2,387 1.0 -13.0°
Reaches altitude 10° 17:53:26 10° 275° (W) 1,515 0.2 -13.4°
Maximum altitude 17:56:13 23° 220° (SW) 939 -1.3 -13.9°
Drops below altitude 10° 17:58:58 10° 165° (SSE) 1,502 -0.9 -14.3°
Enters shadow 18:02:47 -5° 146° (SSE) 2,941 0.4 -14.9°
